Regional Weather Roundup
Issued by NWS Grand Forks, ND

Home | Current Version | Previous Version | Graphics & Text | Print | Product List | Glossary On
Versions: 1 2 3 4 5 6 7 8 9 10 11 12 13 14 15 16 17 18 19 20 21 22 23 24 25 26 27 28 29 30 31 32 33 34 35 36 37 38 39 40 41 42 43 44 45 46 47 48 49 50
000
ASUS43 KFGF 202131
RWRFGF
PRAIRIE TO PINES  WEATHER ROUNDUP
NATIONAL WEATHER SERVICE EASTERN NORTH DAKOTA/GRAND FORKS ND
300 PM CST SAT DEC 20 2014

 **SATELLITE DATA USED TO AUGMENT SKY COVER AT AUTOMATED STATIONS**
 *****  WEATHER ACROSS EASTERN NORTH DAKOTA  *****

CITY           SKY/WX    TMP DP  RH WIND       PRES   REMARKS
GRAND FORKS    FOG       28  27  96 S12       29.94F VSB 1   WCI  18
GRAND FRKS AFB CLOUDY    28  28 100 S10       29.94S FOG     WCI  18
GRAND FRKS NWS   N/A     28 N/A N/A S13         N/A  WCI  18
DEVILS LAKE    CLOUDY    25  18  74 SE12      29.84F VSB 3/4 WCI  14
FARGO          CLOUDY    31  27  85 S18       29.97S FOG     WCI  19
WAHPETON ARPT  CLOUDY    32  28  86 S14       29.99R WCI  22
$$

 ***** WEATHER ACROSS CENTRAL AND WESTERN NORTH DAKOTA  *****

CITY           SKY/WX    TMP DP  RH WIND       PRES   REMARKS
BISMARCK       CLOUDY    32  27  81 CALM      29.84S
MINOT          MOSUNNY   28  25  88 E3        29.78F
JAMESTOWN      CLOUDY    30  25  81 S10       29.87F HAZE    WCI  21
MINOT AFB      PTSUNNY   26  26 100 SE6       29.78F WCI  19
GARRISON         N/A     35  29  78 SW7       29.79F
WILLISTON      SUNNY     39  30  70 SW6       29.77F
DICKINSON      SUNNY     48  30  49 W13       29.78F
HETTINGER      MOSUNNY   46  31  55 W10       29.83F
$$

 *****  OTHER AIRPORT OBSERVATIONS IN OUR AREA  *****

CITY           SKY/WX    TMP DP  RH WIND       PRES   REMARKS
WALHALLA         N/A     25  25 100 S8        29.91S WCI  16
GRAFTON AIRPOR NOT AVBL
VALLEY CITY AR CLOUDY    27  27 100 MISG      29.91S FOG
CANDO          FOG       25  25 100 S7        29.85S VSB 1/2 WCI  17
CAVALIER APRT  CLOUDY    27  27 100 S6        29.92S FOG     WCI  20
GWINNER        CLOUDY    32  32 100 MISG      29.95S
ROLLA          FOG       23  23 100 MISG      29.83S VSB<1/4
 ***** THE ABOVE OBSERVATIONS ARE NON NWS ARE NOT QUALITY
       CONTROLLED AND MAY MIS-REPORT RAIN FOR SNOW...
$$

  *****  WEATHER ACROSS NORTHERN MINNESOTA  *****

CITY           SKY/WX    TMP DP  RH WIND       PRES   REMARKS
FLAG ISLAND    CLOUDY    28  27  93 S6        29.95F WCI  22
WARROAD        CLOUDY    28  27  93 S6        29.97R FOG     WCI  22
ROSEAU         CLOUDY    30  27  86 S12       29.96R FOG     WCI  21
HALLOCK        FOG       28  27  93 CALM      29.93S VSB 1/2
THF RVR FALLS  CLOUDY    30  28  93 S15       29.95S WCI  19
BAUDETTE       CLOUDY    30  27  88 S8        29.97S WCI  22
WASKISH        CLOUDY    30  28  93 CALM      29.99R FOG
CROOKSTON      CLOUDY    30  28  93 S10       29.96F FOG     WCI  21
STEPHEN NDAWN    N/A     28  28 100 S12         N/A  WCI  18
GREENBUSH NDAW   N/A     28  28 100 S1          N/A
$$
  *****  WEATHER ACROSS CENTRAL AND WEST MINNESOTA  *****

CITY           SKY/WX    TMP DP  RH WIND       PRES   REMARKS
FOSSTON        CLOUDY    27  27 100 S14       29.97F FOG     WCI  15
BEMIDJI        CLOUDY    28  27  96 S9        29.99R FOG     WCI  20
PARK RAPIDS    CLOUDY    30  28  92 S13       29.99S FOG     WCI  20
ELBOW LAKE     CLOUDY    31  29  93 S15       29.99S FOG     WCI  20
WADENA         CLOUDY    28  27  93 S12       30.00S FOG     WCI  18
DETROIT LAKES  CLOUDY    30  30 100 S12       29.98S FOG     WCI  21
MOORHEAD       CLOUDY    30  30 100 S10       29.99R FOG     WCI  21
FERGUS FALLS   CLOUDY    30  28  93 S12       30.01F FOG     WCI  21
MORRIS MN      SUNNY     34  30  86 S12       29.99F FOG
STAPLES        CLOUDY    28  27  93 S8        30.02S FOG     WCI  20
$$
  *****  WEATHER ELSEWHERE ACROSS MINNESOTA  *****

CITY           SKY/WX    TMP DP  RH WIND       PRES   REMARKS
DULUTH         CLOUDY    30  26  85 S7        30.06S FOG     WCI  23
INTRNTL FALLS  CLOUDY    30  28  92 VRB5      30.00S FOG
ELY            CLOUDY    28  27  93 S7        30.04S WCI  21
CLOQUET        CLOUDY    30  27  86 S5        30.07R FOG
WHEATON        CLOUDY    28  27  93 S9        30.01S FOG     WCI  20
BRAINERD       CLOUDY    29  26  89 S14       30.04F WCI  18
HIBBING        CLOUDY    30  26  85 S9        30.03S FOG     WCI  22
ALEXANDRIA     CLOUDY    30  27  88 S15       30.01F FOG     WCI  19
SAINT CLOUD    CLOUDY    32  26  78 S12       30.07S WCI  23
MINNEAPOLIS    CLOUDY    31  27  85 S6        30.12S
$$

  *****  WEATHER ACROSS SOUTH DAKOTA  *****

CITY           SKY/WX    TMP DP  RH WIND       PRES   REMARKS
SIOUX FALLS    CLOUDY    31  29  92 S12       30.01F WCI  22
BROOKINGS      NOT AVBL
WATERTOWN      CLOUDY    30  29  96 S10       29.96S FOG     WCI  21
HURON          CLOUDY    28  27  96 S8        29.97S FOG     WCI  20
SISSETON         N/A     32  30  92 SW12      29.97S WCI  23
ABERDEEN       CLOUDY    29  27  92 S15       29.93F FOG     WCI  18
MITCHELL       CLOUDY    31  30  96 S12       29.98S FOG     WCI  22
PIERRE         CLOUDY    28  25  88 SE5       29.90S WCI  23
MOBRIDGE       PTSUNNY   32  28  85 SE12      29.84F WCI  23
RAPID CITY     MOSUNNY   51  26  37 N6        29.87F
$$

  *****  SOME WEATHER IN NEARBY STATES *****

CITY           SKY/WX    TMP DP  RH WIND       PRES   REMARKS
GLASGOW MT     SUNNY     45  25  45 W12       29.77F
GREAT FALLS MT CLOUDY    42  24  49 SW17      29.76F
CHEYENNE WY    SUNNY     45  18  34 W16G29    29.94F
SCOTTSBLUFF NE SUNNY     45  29  53 SW3       29.92F
OMAHA NE       CLOUDY    34  32  92 S10       30.07F FOG
DES MOINES IA  CLOUDY    36  33  89 S7        30.12R
DAVENPORT IA   CLOUDY    33  26  75 S7        30.20R
CHICAGO IL     FLURRIES  33  24  69 S6        30.23S
EAU CLAIRE WI  CLOUDY    32  25  75 S6        30.15S
LA CROSSE WI   CLOUDY    33  27  78 S7        30.18R
$$

  *****  SOME NATIONAL WEATHER *****

CITY           SKY/WX    TMP DP  RH WIND       PRES   REMARKS
LA GUARDIA NY  CLOUDY    33  21  61 NE6       30.27R
RALEIGH NC     CLOUDY    38  33  82 CALM      30.25S FOG
ATLANTA GA     CLOUDY    51  46  83 NW3       30.15R
NEW ORLEANS LA CLOUDY    53  48  83 N13       30.10F
OKLAHOMA CITY  CLOUDY    44  37  76 S10       30.15S
ALBUQUERQUE NM MOSUNNY   43  26  51 CALM      30.10F
SALT LAKE CITY CLOUDY    40  36  86 CALM      30.08F
LOS ANGELES CA CLOUDY    61  53  75 W7        30.14F
BOISE ID       LGT RAIN  44  37  76 SE14      29.96S
SEATTLE WA     LGT RAIN  47  44  90 SE10      29.55F FOG
$$

*** WEATHER ACROSS MANITOBA...SASKATCHEWAN AND ONTARIO ***
                ***ONTARIO***

CITY           SKY/WX    TMP DP  RH WIND       PRES   REMARKS
GERALDTON      FLURRIES  25  23  93 SE7       30.14R WCI  17
THUNDER BAY    LGT SNOW  32  30  93 SE3       30.14R
SIOUX LOOKOUT  FLURRIES  27  25  93 S3        30.01
TORONTO        MOCLDY    30  21  69 SE5       30.25S
BIG TROUT LK   CLOUDY    21  21 100 SE6       30.06S WCI  14
PICKLE LAKE    FLURRIES  25  21  86 S6        30.03S WCI  18
DRYDEN         CLOUDY    27  27 100 S7        29.99S FOG     WCI  19
KENORA         FRZ DRZL  28  27  93 S7        29.95  FOG     WCI  21
$$
                *** MANITOBA***

CITY           SKY/WX    TMP DP  RH WIND       PRES   REMARKS
BRANDON        FOG       23  23 100 SE8       29.84  VSB 1   WCI  14
DAUPHIN        CLOUDY    27  23  86 SW5       29.84F WCI  21
ISLAND LAKE    FLURRIES  23  21  93 SE6       29.97S WCI  16
PILOT MOUND      N/A     23  21  93 S1          N/A
THE PAS        LGT SNOW  19  18  93 SE12      29.84  FOG     WCI   7
THOMPSON       LGT SNOW  18  14  86 SW7       29.91  WCI   8
WINNIPEG       FRZ DRZL  27  25  93 SE6       29.92  FOG     WCI  20
LYNN LAKE      FLURRIES  16  14  93 S7        29.79F WCI   6
CHURCHILL      FLURRIES  16  14  93 S14       29.93  WCI   1
GILLAM         FRZ DRZL  18  16  93 S6        29.98  WCI   9
$$
                ***SASKATCHEWAN***

CITY           SKY/WX    TMP DP  RH WIND       PRES   REMARKS
ESTEVAN        CLOUDY    30  30 100 SE6       29.74F WCI  24
KINDERSLEY     MOSUNNY   25  23  93 SW6       29.66  WCI  18
LLOYDMINSTER   PTSUNNY   21  19  93 S3        29.62
PRINCE ALBERT  FLURRIES  19  19 100 E7        29.70  WCI  10
REGINA         CLOUDY    28  28 100 SE8       29.69  FOG     WCI  20
YORKTON        CLOUDY    23  21  93 SE12      29.74F WCI  12
N. BATTLEFORD  CLOUDY    21  19  93 CALM      29.69F
LA RONGE       CLOUDY    16  16 100 SE6       29.76  WCI   7
SASKATOON      LGT SNOW  21  19  93 NW6       29.70  FOG     WCI  14
SWIFT CURRENT  SUNNY     36  27  69 W15       29.66F
$$
NOTE: THESE ARE AUTOMATED STATIONS WITH LIMITED QUALITY CONTROL
      "FAIR" INDICATES FEW OR NO CLOUDS BELOW 12,000 FEET WITH NO
      SIGNIFICANT WEATHER AND/OR OBSTRUCTIONS TO VISIBILITY.
      SKY/WX - SKY CONDITION AND SIGNIFICANT WEATHER.
      TMP - AIR TEMPERATURE.    DP   - DEWPOINT TEMPERATURE.
      RH  - RELATIVE HUMIDITY.  PRES - PRESSURE.
      HX  - HEAT INDEX.         WCI  - WIND CHILL INDEX.
$


USA.gov is the U.S. government's official web portal to all federal, state and local government web resources and services.